| time (UTC) | temp F | wind direction | speed MPH | gust MPH | rain 1hr in | rain 24hr in | rain mn in | humidity % | barometer mb |
| 20260504173254 | 54 | 216 | 0.0 | 5.0 | 0.00 | 0.00 | 0.00 | 29 | 1000.1 |
| 20260504172750 | 55 | 354 | 0.0 | 0.0 | 0.00 | 0.00 | 0.00 | 31 | 999.8 |
| 20260504172247 | 55 | 227 | 0.0 | 0.0 | 0.00 | 0.00 | 0.00 | 32 | 999.8 |
| 20260504171743 | 56 | 175 | 0.0 | 0.0 | 0.00 | 0.00 | 0.00 | 30 | 999.8 |
| 20260504171240 | 56 | 197 | 0.0 | 2.0 | 0.00 | 0.00 | 0.00 | 31 | 999.8 |
| 20260504170737 | 56 | 237 | 9.0 | 13.0 | 0.00 | 0.00 | 0.00 | 28 | 999.8 |
| 20260504170235 | 56 | 290 | 0.0 | 0.0 | 0.00 | 0.00 | 0.00 | 29 | 999.8 |
| 20260504160153 | 56 | 110 | 0.0 | 0.0 | 0.00 | 0.00 | 0.00 | 30 | 999.8 |
| 20260504151121 | 54 | 292 | 0.0 | 0.0 | 0.00 | 0.00 | 0.00 | 32 | 1000.4 |
| 20260504150618 | 54 | 291 | 0.0 | 0.0 | 0.00 | 0.00 | 0.00 | 30 | 1000.4 |
| 20260504150115 | 53 | 120 | 0.0 | 0.0 | 0.00 | 0.00 | 0.00 | 34 | 1000.9 |
| 20260504141044 | 51 | 72 | 0.0 | 0.0 | 0.00 | 0.00 | 0.00 | 39 | 1000.9 |
| 20260504140540 | 50 | 173 | 0.0 | 0.0 | 0.00 | 0.00 | 0.00 | 37 | 1000.9 |
| 20260504130504 | 47 | 256 | 0.0 | 0.0 | 0.00 | 0.00 | 0.00 | 46 | 1001.2 |
| 20260504110346 | 37 | 300 | 0.0 | 0.0 | 0.00 | 0.00 | 0.00 | 75 | 1001.2 |
| 20260504100303 | 32 | 248 | 0.0 | 0.0 | 0.00 | 0.00 | 0.00 | 83 | 1001.2 |
| 20260504081656 | 32 | 149 | 0.0 | 0.0 | 0.00 | 0.00 | 0.00 | 84 | 1000.1 |
| 20260504081153 | 32 | 180 | 0.0 | 0.0 | 0.00 | 0.00 | 0.00 | 84 | 1000.4 |
| 20260504080649 | 32 | 308 | 0.0 | 0.0 | 0.00 | 0.00 | 0.00 | 84 | 1000.1 |
| 20260504080145 | 32 | 205 | 0.0 | 0.0 | 0.00 | 0.00 | 0.00 | 84 | 1000.1 |
| 20260504070114 | 33 | 257 | 0.0 | 0.0 | 0.00 | 0.00 | 0.00 | 84 | 1000.1 |
| 20260504050502 | 34 | 281 | 0.0 | 0.0 | 0.00 | 0.00 | 0.00 | 86 | 1000.4 |
| 20260504045959 | 34 | 105 | 0.0 | 0.0 | 0.00 | 0.00 | 0.00 | 86 | 1000.4 |
| 20260504045455 | 34 | 236 | 0.0 | 0.0 | 0.00 | 0.00 | 0.00 | 86 | 1000.1 |
| 20260504044951 | 34 | 171 | 0.0 | 0.0 | 0.00 | 0.00 | 0.00 | 86 | 1000.4 |
| 20260504044449 | 34 | 267 | 0.0 | 0.0 | 0.00 | 0.00 | 0.00 | 86 | 1000.4 |
| 20260504043946 | 34 | 238 | 0.0 | 0.0 | 0.00 | 0.00 | 0.00 | 87 | 1000.4 |
| 20260504043443 | 34 | 41 | 0.0 | 0.0 | 0.00 | 0.00 | 0.00 | 86 | 1000.4 |
| 20260504042940 | 34 | 326 | 0.0 | 0.0 | 0.00 | 0.00 | 0.00 | 87 | 1000.4 |
| 20260504042437 | 35 | 314 | 0.0 | 0.0 | 0.00 | 0.00 | 0.00 | 88 | 1000.4 |
| 20260504041934 | 35 | 40 | 0.0 | 0.0 | 0.00 | 0.00 | 0.00 | 88 | 1000.4 |
| 20260504041430 | 35 | 334 | 0.0 | 0.0 | 0.00 | 0.00 | 0.00 | 89 | 1000.4 |
| 20260504040926 | 35 | 241 | 0.0 | 0.0 | 0.00 | 0.00 | 0.00 | 89 | 1000.4 |
| 20260504040424 | 35 | 176 | 0.0 | 0.0 | 0.00 | 0.00 | 0.00 | 89 | 1000.9 |
| 20260504035920 | 35 | 157 | 0.0 | 0.0 | 0.00 | 0.34 | 0.34 | 90 | 1000.4 |
| 20260504035417 | 35 | 170 | 0.0 | 0.0 | 0.00 | 0.34 | 0.34 | 90 | 1000.9 |
| 20260504034913 | 36 | 263 | 0.0 | 0.0 | 0.00 | 0.34 | 0.34 | 90 | 1000.9 |
| 20260504034411 | 36 | 191 | 0.0 | 0.0 | 0.00 | 0.34 | 0.34 | 90 | 1000.4 |
| 20260504033908 | 36 | 157 | 0.0 | 0.0 | 0.00 | 0.34 | 0.34 | 91 | 1000.4 |
| 20260504033406 | 36 | 335 | 0.0 | 0.0 | 0.00 | 0.34 | 0.34 | 91 | 1000.4 |
| 20260504032903 | 36 | 128 | 0.0 | 0.0 | 0.00 | 0.34 | 0.34 | 91 | 1000.4 |
| 20260504032400 | 36 | 165 | 0.0 | 0.0 | 0.00 | 0.34 | 0.34 | 91 | 1000.4 |
| 20260504031856 | 36 | 192 | 0.0 | 0.0 | 0.00 | 0.34 | 0.34 | 91 | 1000.4 |
| 20260504031353 | 36 | 274 | 0.0 | 0.0 | 0.00 | 0.34 | 0.34 | 92 | 1000.4 |
| 20260504030850 | 37 | 251 | 0.0 | 0.0 | 0.00 | 0.34 | 0.34 | 92 | 1000.4 |
| 20260504030347 | 37 | 158 | 0.0 | 0.0 | 0.00 | 0.34 | 0.34 | 92 | 1000.4 |
| 20260504025843 | 37 | 32 | 0.0 | 0.0 | 0.00 | 0.34 | 0.34 | 92 | 1000.4 |
| 20260504025340 | 37 | 269 | 0.0 | 0.0 | 0.00 | 0.34 | 0.34 | 92 | 1000.4 |
| 20260504024837 | 38 | 259 | 0.0 | 0.0 | 0.00 | 0.34 | 0.34 | 92 | 1000.4 |
| 20260504024333 | 38 | 240 | 0.0 | 0.0 | 0.00 | 0.34 | 0.34 | 92 | 1000.4 |
| 20260504023830 | 38 | 224 | 0.0 | 0.0 | 0.00 | 0.34 | 0.34 | 92 | 1000.4 |
| 20260504023327 | 38 | 197 | 0.0 | 0.0 | 0.00 | 0.34 | 0.34 | 92 | 1000.4 |
| 20260504022822 | 38 | 184 | 0.0 | 0.0 | 0.00 | 0.34 | 0.34 | 92 | 1000.4 |
| 20260504022320 | 38 | 1 | 0.0 | 0.0 | 0.00 | 0.34 | 0.34 | 92 | 1000.4 |
| 20260504021816 | 38 | 220 | 0.0 | 0.0 | 0.00 | 0.34 | 0.34 | 92 | 1000.4 |
| 20260504021314 | 38 | 14 | 0.0 | 0.0 | 0.00 | 0.34 | 0.34 | 92 | 1000.4 |
| 20260504020810 | 38 | 242 | 0.0 | 0.0 | 0.00 | 0.34 | 0.34 | 92 | 1000.4 |
| 20260504020307 | 39 | 196 | 0.0 | 0.0 | 0.00 | 0.34 | 0.34 | 92 | 1000.4 |
| 20260504015757 | 39 | 83 | 0.0 | 0.0 | 0.00 | 0.34 | 0.34 | 92 | 1000.4 |
| 20260504015254 | 39 | 189 | 0.0 | 0.0 | 0.00 | 0.34 | 0.34 | 92 | 1000.4 |
| 20260504014750 | 39 | 35 | 0.0 | 0.0 | 0.00 | 0.34 | 0.34 | 92 | 1000.4 |
| 20260504014246 | 39 | 1 | 0.0 | 0.0 | 0.00 | 0.34 | 0.34 | 92 | 1000.9 |
| 20260504013744 | 39 | 16 | 0.0 | 0.0 | 0.00 | 0.34 | 0.34 | 92 | 1000.9 |
| 20260504013242 | 39 | 49 | 0.0 | 0.0 | 0.00 | 0.34 | 0.34 | 92 | 1000.9 |
| 20260504012738 | 39 | 23 | 0.0 | 0.0 | 0.00 | 0.34 | 0.34 | 92 | 1000.9 |
| 20260504012236 | 39 | 260 | 0.0 | 0.0 | 0.00 | 0.34 | 0.34 | 92 | 1000.9 |
| 20260504011732 | 39 | 63 | 0.0 | 0.0 | 0.00 | 0.34 | 0.34 | 92 | 1000.9 |
| 20260504011229 | 39 | 357 | 0.0 | 0.0 | 0.00 | 0.34 | 0.34 | 92 | 1000.9 |
| 20260504010725 | 40 | 359 | 0.0 | 0.0 | 0.00 | 0.34 | 0.34 | 92 | 1000.9 |
| 20260504010221 | 40 | 353 | 0.0 | 0.0 | 0.00 | 0.34 | 0.34 | 92 | 1000.9 |
| 20260504005718 | 40 | 24 | 0.0 | 0.0 | 0.00 | 0.34 | 0.34 | 92 | 1000.9 |
| 20260504005215 | 40 | 66 | 0.0 | 0.0 | 0.00 | 0.34 | 0.34 | 92 | 1000.9 |
| 20260504004712 | 40 | 307 | 0.0 | 0.0 | 0.00 | 0.34 | 0.34 | 92 | 1000.9 |
| 20260504004209 | 40 | 6 | 0.0 | 0.0 | 0.00 | 0.34 | 0.34 | 92 | 1000.4 |
| 20260504003706 | 40 | 6 | 0.0 | 0.0 | 0.00 | 0.34 | 0.34 | 92 | 1000.4 |
| 20260504003203 | 40 | 179 | 0.0 | 0.0 | 0.00 | 0.34 | 0.34 | 92 | 1000.4 |
| 20260504002700 | 40 | 354 | 0.0 | 0.0 | 0.00 | 0.34 | 0.34 | 92 | 1000.4 |
| 20260504002157 | 40 | 6 | 0.0 | 0.0 | 0.00 | 0.34 | 0.34 | 92 | 1000.4 |
| 20260504001655 | 40 | 5 | 0.0 | 0.0 | 0.00 | 0.34 | 0.34 | 92 | 1000.4 |
| 20260504001151 | 40 | 333 | 0.0 | 0.0 | 0.00 | 0.34 | 0.34 | 92 | 1000.4 |
| 20260504000648 | 40 | 2 | 0.0 | 2.0 | 0.00 | 0.34 | 0.34 | 92 | 1000.4 |
| 20260504000145 | 40 | 24 | 0.0 | 0.0 | 0.00 | 0.34 | 0.34 | 92 | 1000.4 |
| 20260503235643 | 40 | 348 | 0.0 | 0.0 | 0.00 | 0.34 | 0.34 | 92 | 1000.4 |
| 20260503235139 | 40 | 2 | 0.0 | 0.0 | 0.00 | 0.34 | 0.34 | 92 | 1000.4 |
| 20260503234638 | 40 | 8 | 0.0 | 0.0 | 0.00 | 0.34 | 0.34 | 92 | 1000.4 |
| 20260503234136 | 40 | 43 | 0.0 | 0.0 | 0.00 | 0.34 | 0.34 | 92 | 1000.4 |
| 20260503233632 | 40 | 10 | 0.0 | 0.0 | 0.00 | 0.34 | 0.34 | 92 | 1000.4 |
| 20260503233128 | 40 | 358 | 0.0 | 0.0 | 0.00 | 0.34 | 0.34 | 92 | 1000.4 |
| 20260503232625 | 40 | 348 | 0.0 | 0.0 | 0.00 | 0.34 | 0.34 | 92 | 1000.4 |
| 20260503232122 | 40 | 40 | 0.0 | 0.0 | 0.00 | 0.34 | 0.34 | 92 | 1000.1 |
| 20260503231620 | 40 | 25 | 0.0 | 0.0 | 0.07 | 0.34 | 0.34 | 92 | 1000.4 |
| 20260503231117 | 40 | 6 | 0.0 | 0.0 | 0.07 | 0.34 | 0.34 | 92 | 1000.4 |
| 20260503230614 | 40 | 353 | 0.0 | 0.0 | 0.00 | 0.33 | 0.33 | 92 | 1000.4 |
| 20260503230111 | 40 | 326 | 0.0 | 0.0 | 0.00 | 0.33 | 0.33 | 92 | 1000.4 |
| 20260503225608 | 40 | 322 | 0.0 | 0.0 | 0.00 | 0.33 | 0.33 | 92 | 1000.4 |
| 20260503225107 | 40 | 340 | 0.0 | 0.0 | 0.00 | 0.33 | 0.33 | 92 | 1000.4 |
| 20260503224605 | 40 | 32 | 0.0 | 0.0 | 0.00 | 0.33 | 0.33 | 92 | 1000.4 |
| 20260503224103 | 40 | 39 | 0.0 | 0.0 | 0.00 | 0.33 | 0.33 | 92 | 1000.4 |
| 20260503223601 | 40 | 8 | 0.0 | 0.0 | 0.00 | 0.33 | 0.33 | 92 | 1000.4 |
| 20260503223056 | 40 | 9 | 0.0 | 0.0 | 0.00 | 0.33 | 0.33 | 92 | 1000.1 |
| 20260503222554 | 40 | 21 | 0.0 | 0.0 | 0.00 | 0.33 | 0.33 | 92 | 1000.4 |
| 20260503222052 | 41 | 7 | 0.0 | 0.0 | 0.00 | 0.33 | 0.33 | 92 | 1000.4 |
| 20260503221550 | 41 | 40 | 0.0 | 0.0 | 0.00 | 0.33 | 0.33 | 92 | 1000.4 |
| 20260503221047 | 41 | 79 | 0.0 | 0.0 | 0.00 | 0.33 | 0.33 | 92 | 1000.4 |
| 20260503220543 | 41 | 159 | 0.0 | 0.0 | 0.00 | 0.33 | 0.33 | 92 | 1000.4 |
| 20260503220040 | 41 | 359 | 0.0 | 0.0 | 0.00 | 0.33 | 0.33 | 92 | 1000.4 |
| 20260503215537 | 41 | 6 | 0.0 | 0.0 | 0.00 | 0.33 | 0.33 | 92 | 1000.4 |
| 20260503215034 | 41 | 5 | 0.0 | 0.0 | 0.00 | 0.33 | 0.33 | 92 | 1000.9 |
| 20260503214533 | 41 | 14 | 0.0 | 0.0 | 0.00 | 0.33 | 0.33 | 92 | 1000.4 |
| 20260503214029 | 41 | 354 | 0.0 | 0.0 | 0.00 | 0.33 | 0.33 | 92 | 1000.9 |
| 20260503213528 | 41 | 334 | 0.0 | 0.0 | 0.00 | 0.33 | 0.33 | 92 | 1000.9 |
| 20260503213024 | 41 | 4 | 0.0 | 0.0 | 0.00 | 0.33 | 0.33 | 92 | 1000.9 |
| 20260503212521 | 41 | 7 | 0.0 | 0.0 | 0.07 | 0.33 | 0.33 | 92 | 1000.9 |
| 20260503212019 | 41 | 354 | 0.0 | 0.0 | 0.00 | 0.32 | 0.32 | 92 | 1000.9 |
| 20260503211515 | 41 | 143 | 0.0 | 0.0 | 0.00 | 0.32 | 0.32 | 92 | 1001.2 |
| 20260503211011 | 41 | 289 | 0.0 | 0.0 | 0.00 | 0.32 | 0.32 | 92 | 1001.2 |
| 20260503210508 | 41 | 0 | 0.0 | 0.0 | 0.00 | 0.32 | 0.32 | 91 | 1001.2 |
| 20260503210004 | 41 | 13 | 0.0 | 0.0 | 0.00 | 0.32 | 0.32 | 91 | 1001.2 |
| 20260503205500 | 41 | 13 | 0.0 | 0.0 | 0.00 | 0.32 | 0.32 | 91 | 1001.2 |
| 20260503204956 | 41 | 29 | 0.0 | 0.0 | 0.00 | 0.32 | 0.32 | 91 | 1001.2 |
| 20260503204454 | 41 | 23 | 0.0 | 0.0 | 0.00 | 0.32 | 0.32 | 91 | 1001.2 |
| 20260503203950 | 41 | 334 | 0.0 | 0.0 | 0.00 | 0.32 | 0.32 | 91 | 1001.2 |
| 20260503203448 | 41 | 238 | 0.0 | 0.0 | 0.00 | 0.32 | 0.32 | 91 | 1001.2 |
| 20260503202944 | 41 | 353 | 0.0 | 0.0 | 0.07 | 0.32 | 0.32 | 91 | 1001.6 |
| 20260503202443 | 41 | 250 | 0.0 | 0.0 | 0.07 | 0.32 | 0.32 | 91 | 1001.6 |
| 20260503201941 | 41 | 50 | 0.0 | 0.0 | 0.00 | 0.31 | 0.31 | 91 | 1001.6 |
| 20260503201438 | 41 | 9 | 0.0 | 0.0 | 0.00 | 0.31 | 0.31 | 91 | 1001.9 |
| 20260503200936 | 41 | 327 | 0.0 | 0.0 | 0.00 | 0.31 | 0.31 | 91 | 1001.6 |
| 20260503200432 | 41 | 11 | 0.0 | 0.0 | 0.07 | 0.31 | 0.31 | 91 | 1001.6 |
| 20260503195928 | 41 | 36 | 0.0 | 0.0 | 0.00 | 0.30 | 0.30 | 91 | 1001.9 |
| 20260503195426 | 41 | 97 | 0.0 | 0.0 | 0.00 | 0.30 | 0.30 | 91 | 1002.2 |
| 20260503194922 | 41 | 18 | 0.0 | 0.0 | 0.07 | 0.30 | 0.30 | 91 | 1001.9 |
| 20260503194419 | 41 | 2 | 0.0 | 0.0 | 0.00 | 0.30 | 0.30 | 91 | 1002.2 |
| 20260503193914 | 41 | 306 | 0.0 | 0.0 | 0.07 | 0.28 | 0.28 | 91 | 1002.2 |
| 20260503193410 | 41 | 16 | 0.0 | 0.0 | 0.07 | 0.28 | 0.28 | 91 | 1002.2 |
| 20260503192906 | 41 | 52 | 0.0 | 0.0 | 0.07 | 0.27 | 0.27 | 91 | 1002.2 |
| 20260503192402 | 41 | 354 | 0.0 | 0.0 | 0.07 | 0.27 | 0.27 | 91 | 1002.2 |
| 20260503191859 | 41 | 345 | 0.0 | 0.0 | 0.00 | 0.26 | 0.26 | 91 | 1002.6 |
| 20260503191356 | 41 | 349 | 0.0 | 0.0 | 0.00 | 0.26 | 0.26 | 91 | 1002.6 |
| 20260503190852 | 41 | 91 | 0.0 | 0.0 | 0.07 | 0.26 | 0.26 | 91 | 1002.6 |
| 20260503190349 | 41 | 10 | 0.0 | 0.0 | 0.07 | 0.26 | 0.26 | 91 | 1002.6 |
| 20260503185846 | 41 | 93 | 0.0 | 0.0 | 0.00 | 0.25 | 0.25 | 91 | 1002.6 |
| 20260503185343 | 41 | 106 | 0.0 | 0.0 | 0.07 | 0.25 | 0.25 | 91 | 1002.6 |
| 20260503184842 | 41 | 26 | 0.0 | 0.0 | 0.07 | 0.25 | 0.25 | 91 | 1002.6 |
| 20260503184339 | 41 | 342 | 0.0 | 0.0 | 0.00 | 0.24 | 0.24 | 91 | 1002.9 |
| 20260503183834 | 41 | 344 | 0.0 | 0.0 | 0.00 | 0.24 | 0.24 | 91 | 1002.9 |
| 20260503183332 | 41 | 8 | 0.0 | 0.0 | 0.00 | 0.24 | 0.24 | 91 | 1002.9 |
| 20260503182829 | 41 | 66 | 0.0 | 0.0 | 0.00 | 0.24 | 0.24 | 91 | 1002.9 |
| 20260503182328 | 41 | 6 | 0.0 | 0.0 | 0.00 | 0.24 | 0.24 | 91 | 1002.6 |
| 20260503181825 | 41 | 51 | 0.0 | 0.0 | 0.00 | 0.24 | 0.24 | 91 | 1002.9 |
| 20260503181322 | 41 | 11 | 0.0 | 0.0 | 0.00 | 0.24 | 0.24 | 91 | 1002.6 |
| 20260503180818 | 41 | 351 | 0.0 | 0.0 | 0.00 | 0.24 | 0.24 | 91 | 1002.6 |
| 20260503180317 | 41 | 137 | 0.0 | 0.0 | 0.07 | 0.24 | 0.24 | 91 | 1002.6 |
| 20260503175813 | 41 | 11 | 0.0 | 0.0 | 0.00 | 0.22 | 0.22 | 90 | 1002.6 |
| 20260503175311 | 41 | 6 | 0.0 | 2.0 | 0.00 | 0.22 | 0.22 | 91 | 1002.6 |
| 20260503174806 | 41 | 356 | 0.0 | 0.0 | 0.00 | 0.22 | 0.22 | 91 | 1002.6 |
| 20260503174305 | 41 | 322 | 0.0 | 0.0 | 0.00 | 0.22 | 0.22 | 91 | 1002.6 |
| 20260503173800 | 41 | 6 | 0.0 | 0.0 | 0.00 | 0.22 | 0.22 | 90 | 1002.6 |